This is the latest recevied weather packets stored in our database for station/object SP1BMW-13. If no packets are shown the sender has not sent any weather packets the latest 10 day(s).
| Time | Temp. | Humidity | Pressure | Rain* | Wind** | Luminosity | Snow |
|---|---|---|---|---|---|---|---|
| 1788093579 | 24.44° C | 57% | 1007.7 hPa | 0 mm | 0 m/s | 74 W/m² | - |
| 1788093520 | 24.44° C | 56% | 1007.7 hPa | 0 mm | 0.89 m/s, 292° | 58 W/m² | - |
| 1788093457 | 24.44° C | 56% | 1007.6 hPa | 0 mm | 0.45 m/s, 198° | 48 W/m² | - |
| 1788093397 | 24.44° C | 54% | 1007.7 hPa | 0 mm | 0.89 m/s, 243° | 42 W/m² | - |
| 1788093337 | 24.44° C | 54% | 1007.6 hPa | 0 mm | 1.79 m/s, 266° | 35 W/m² | - |
| 1788093277 | 24.44° C | 55% | 1007.9 hPa | 0 mm | 0.89 m/s, 326° | 30 W/m² | - |
| 1788093217 | 24.44° C | 54% | 1007.6 hPa | 0 mm | 0 m/s | 25 W/m² | - |
| 1788093159 | 25° C | 54% | 1007.8 hPa | 0 mm | 0.45 m/s, 311° | 23 W/m² | - |
| 1788093097 | 25° C | 53% | 1007.7 hPa | 0 mm | 1.34 m/s, 109° | 23 W/m² | - |
| 1788093037 | 25° C | 53% | 1007.5 hPa | 0 mm | 0.89 m/s, 226° | 24 W/m² | - |
| 1788092980 | 25° C | 53% | 1007.7 hPa | 0 mm | 0.45 m/s, 131° | 24 W/m² | - |
| 1788092917 | 25° C | 52% | 1007.7 hPa | 0 mm | 1.34 m/s, 260° | 24 W/m² | - |
| 1788092857 | 25° C | 52% | 1007.6 hPa | 0 mm | 0.89 m/s, 91° | 26 W/m² | - |
| 1788092806 | 25° C | 52% | 1007.7 hPa | 0 mm | 0.45 m/s, 164° | 28 W/m² | - |
| 1788092737 | 25° C | 52% | 1007.4 hPa | 0 mm | 0.45 m/s, 196° | 28 W/m² | - |
| 1788092677 | 25° C | 52% | 1007.5 hPa | 0 mm | 0.45 m/s, 10° | 28 W/m² | - |
| 1788092617 | 25° C | 52% | 1007.4 hPa | 0 mm | 0 m/s | 29 W/m² | - |
| 1788092557 | 25° C | 52% | 1007.6 hPa | 0 mm | 0.89 m/s, 218° | 31 W/m² | - |
| 1788092498 | 25° C | 53% | 1007.5 hPa | 0 mm | 0.45 m/s, 274° | 35 W/m² | - |
| 1788092437 | 25.56° C | 52% | 1007.5 hPa | 0 mm | 1.34 m/s, 223° | 43 W/m² | - |
| 1788092380 | 25.56° C | 52% | 1007.5 hPa | 0 mm | 0.89 m/s, 330° | 52 W/m² | - |
| 1788092319 | 25.56° C | 52% | 1007.6 hPa | 0 mm | 0.89 m/s, 310° | 66 W/m² | - |
| 1788092257 | 25.56° C | 51% | 1007.5 hPa | 0 mm | 0.45 m/s, 210° | 84 W/m² | - |
| 1788092198 | 25.56° C | 51% | 1007.5 hPa | 0 mm | 1.79 m/s, 266° | 109 W/m² | - |
| 1788092138 | 25.56° C | 52% | 1007.5 hPa | 0 mm | 0.89 m/s, 244° | 139 W/m² | - |
* Rain latest hour (hover to see other rain measurements)
** Current wind speed in m/s (hover to see current wind gust speed)